Location: Olmeneta
(45.2333°N, 10.0167°E)
Time: 12:18:45
(UTC+00:00)

Meteor 1-5 Rocket - Pass Details

Date: 03 March 2021
Orbit: 790 x 914 km, 81.2° (Epoch: 11 April)

Event Time Altitude Azimuth Distance (km) Brightness Sun altitude
Rises 18:29:58 0° 179° (S) 3,283 7.2 -14.9°
Reaches altitude 10° 18:32:20 10° 176° (S) 2,367 6.4 -15.3°
Maximum altitude 18:37:35 63° 96° (E) 910 4.1 -16.2°
Drops below altitude 10° 18:43:01 10° 17° (NNE) 2,448 6.5 -17.1°
Sets 18:45:30 0° 14° (NNE) 3,406 7.3 -17.6°
